• In Germany
  • List of Countries
  • For 7 days
  • Water Temperature
  • Satellite Maps
  • Weather Map
  • Weather Widgets
  • user-avatar
    Login

    Hourly Weather Hobart

    Today, 25 November, Saturday

    Time Temperature Precipitation Wind Pressure Humidity
    00:00 +15°C° 0 mm 1 mps 748 mmHg 98%
    01:00 +15°C° 0 mm 1 mps 748 mmHg 98%
    02:00 +15°C° 0 mm 1 mps 748 mmHg 98%
    03:00 +15°C° 0 mm 1 mps 748 mmHg 98%
    04:00 +16°C° 0 mm 1 mps 748 mmHg 98%
    05:00 +18°C° 0 mm 1 mps 748 mmHg 94%
    06:00 +19°C° 0 mm 1 mps 748 mmHg 90%
    07:00 +20°C° 0 mm 1 mps 748 mmHg 86%
    08:00 +20°C° 0.3 mm 1 mps 748 mmHg 86%
    09:00 +21°C° 0.3 mm 1 mps 748 mmHg 87%
    10:00 +22°C° 0.3 mm 1 mps 748 mmHg 87%
    11:00 +21°C° 1 mm 2 mps 748 mmHg 85%
    12:00 +23°C° 1 mm 2 mps 748 mmHg 83%
    13:00 +23°C° 1 mm 2 mps 748 mmHg 81%
    14:00 +23°C° 0.8 mm 2 mps 748 mmHg 83%
    15:00 +22°C° 0.8 mm 3 mps 747 mmHg 86%
    16:00 +22°C° 0.8 mm 3 mps 747 mmHg 88%
    17:00 +21°C° 0.6 mm 2 mps 747 mmHg 91%
    18:00 +20°C° 0.6 mm 2 mps 747 mmHg 94%
    19:00 +19°C° 0.6 mm 2 mps 747 mmHg 96%
    20:00 +18°C° 0.1 mm 2 mps 747 mmHg 97%
    21:00 +18°C° 0.1 mm 2 mps 747 mmHg 97%
    22:00 +17°C° 0.1 mm 2 mps 747 mmHg 98%
    23:00 +17°C° 0.1 mm 2 mps 747 mmHg 98%

    Tomorrow, 26 November, Sunday

    Time Temperature Precipitation Wind Pressure Humidity
    00:00 +17°C° 0.1 mm 2 mps 747 mmHg 98%
    01:00 +17°C° 0.1 mm 2 mps 747 mmHg 98%
    02:00 +17°C° 0.3 mm 2 mps 746 mmHg 97%
    03:00 +17°C° 0.3 mm 2 mps 746 mmHg 97%
    04:00 +17°C° 0.3 mm 2 mps 746 mmHg 97%
    05:00 +17°C° 0.2 mm 2 mps 746 mmHg 95%
    06:00 +18°C° 0.2 mm 2 mps 746 mmHg 93%
    07:00 +20°C° 0.2 mm 1 mps 746 mmHg 91%
    08:00 +20°C° 0.3 mm 2 mps 746 mmHg 87%
    09:00 +23°C° 0.3 mm 2 mps 746 mmHg 84%
    10:00 +24°C° 0.3 mm 3 mps 746 mmHg 80%
    11:00 +24°C° 1.1 mm 3 mps 746 mmHg 82%
    12:00 +24°C° 1.1 mm 3 mps 745 mmHg 83%
    13:00 +24°C° 1.1 mm 3 mps 745 mmHg 84%
    14:00 +23°C° 2.1 mm 2 mps 745 mmHg 87%
    15:00 +21°C° 2.1 mm 2 mps 744 mmHg 90%
    16:00 +20°C° 2.1 mm 2 mps 744 mmHg 93%
    17:00 +20°C° 0.5 mm 2 mps 744 mmHg 94%
    18:00 +20°C° 0.5 mm 1 mps 744 mmHg 95%
    19:00 +20°C° 0.5 mm 1 mps 744 mmHg 97%
    20:00 +19°C° 0.1 mm 1 mps 745 mmHg 97%
    21:00 +18°C° 0.1 mm 1 mps 745 mmHg 98%
    22:00 +18°C° 0.1 mm 1 mps 745 mmHg 99%
    23:00 +18°C° 0.3 mm 1 mps 745 mmHg 99%

    Day after tomorrow, 27 November, Monday

    Time Temperature Precipitation Wind Pressure Humidity
    00:00 +18°C° 0.3 mm 1 mps 745 mmHg 99%
    01:00 +18°C° 0.3 mm 1 mps 745 mmHg 99%
    02:00 +18°C° 0.7 mm 1 mps 745 mmHg 99%
    03:00 +18°C° 0.7 mm 1 mps 745 mmHg 99%
    04:00 +16°C° 0.7 mm 1 mps 744 mmHg 99%
    05:00 +18°C° 0.4 mm 1 mps 745 mmHg 98%
    06:00 +18°C° 0.4 mm 1 mps 745 mmHg 97%
    07:00 +19°C° 0.4 mm 1 mps 746 mmHg 96%
    08:00 +19°C° 0.1 mm 1 mps 746 mmHg 92%
    09:00 +20°C° 0.1 mm 1 mps 746 mmHg 89%
    10:00 +20°C° 0.1 mm 2 mps 746 mmHg 85%
    11:00 +20°C° 0.4 mm 2 mps 746 mmHg 86%
    12:00 +20°C° 0.4 mm 2 mps 746 mmHg 87%
    13:00 +20°C° 0.4 mm 3 mps 746 mmHg 88%
    14:00 +19°C° 0.6 mm 3 mps 746 mmHg 90%
    15:00 +19°C° 0.6 mm 4 mps 746 mmHg 91%
    16:00 +18°C° 0.6 mm 4 mps 746 mmHg 92%
    17:00 +17°C° 0.2 mm 4 mps 747 mmHg 93%
    18:00 +15°C° 0.2 mm 4 mps 747 mmHg 95%
    19:00 +14°C° 0.2 mm 4 mps 748 mmHg 96%
    20:00 +14°C° 0 mm 4 mps 749 mmHg 96%
    21:00 +14°C° 0 mm 4 mps 749 mmHg 96%
    22:00 +13°C° 0 mm 3 mps 749 mmHg 97%
    23:00 +13°C° 0 mm 3 mps 749 mmHg 97%

    28 November, Tuesday

    Time Temperature Precipitation Wind Pressure Humidity
    00:00 +13°C° 0 mm 3 mps 749 mmHg 97%
    01:00 +12°C° 0 mm 3 mps 749 mmHg 98%
    02:00 +12°C° 0 mm 3 mps 750 mmHg 98%
    03:00 +12°C° 0 mm 3 mps 750 mmHg 98%
    04:00 +12°C° 0 mm 3 mps 750 mmHg 98%
    05:00 +13°C° 0 mm 3 mps 750 mmHg 95%
    06:00 +15°C° 0 mm 2 mps 750 mmHg 92%
    07:00 +15°C° 0 mm 2 mps 751 mmHg 88%
    08:00 +17°C° 0 mm 2 mps 751 mmHg 81%
    09:00 +19°C° 0 mm 2 mps 751 mmHg 74%
    10:00 +20°C° 0 mm 2 mps 751 mmHg 67%
    11:00 +21°C° 0 mm 3 mps 751 mmHg 65%
    12:00 +21°C° 0 mm 3 mps 751 mmHg 64%
    13:00 +22°C° 0 mm 3 mps 751 mmHg 62%
    14:00 +22°C° 0 mm 3 mps 751 mmHg 62%
    15:00 +22°C° 0 mm 3 mps 751 mmHg 63%
    16:00 +22°C° 0 mm 3 mps 751 mmHg 64%
    17:00 +20°C° 0 mm 2 mps 751 mmHg 70%
    18:00 +19°C° 0 mm 2 mps 751 mmHg 76%
    19:00 +18°C° 0 mm 2 mps 751 mmHg 83%
    20:00 +16°C° 0 mm 1 mps 751 mmHg 88%
    21:00 +15°C° 0 mm 1 mps 751 mmHg 93%
    22:00 +14°C° 0 mm 1 mps 752 mmHg 99%
    23:00 +14°C° 0 mm 1 mps 751 mmHg 98%

    29 November, Wednesday

    Time Temperature Precipitation Wind Pressure Humidity
    00:00 +14°C° 0 mm 1 mps 751 mmHg 98%
    01:00 +14°C° 0 mm 1 mps 751 mmHg 98%
    02:00 +14°C° 0 mm 1 mps 751 mmHg 98%
    03:00 +14°C° 0 mm 1 mps 750 mmHg 98%
    04:00 +14°C° 0 mm 2 mps 750 mmHg 98%
    05:00 +15°C° 0 mm 2 mps 750 mmHg 92%
    06:00 +17°C° 0 mm 2 mps 750 mmHg 86%
    07:00 +19°C° 0 mm 2 mps 750 mmHg 80%
    08:00 +21°C° 0 mm 2 mps 750 mmHg 69%
    09:00 +25°C° 0 mm 3 mps 750 mmHg 58%
    10:00 +27°C° 0 mm 3 mps 750 mmHg 47%
    11:00 +28°C° 0 mm 3 mps 749 mmHg 42%
    12:00 +30°C° 0 mm 4 mps 748 mmHg 37%
    13:00 +32°C° 0 mm 4 mps 748 mmHg 32%
    14:00 +32°C° 0 mm 4 mps 747 mmHg 32%
    15:00 +33°C° 0 mm 4 mps 747 mmHg 32%
    16:00 +33°C° 0 mm 4 mps 747 mmHg 31%
    17:00 +29°C° 0 mm 4 mps 747 mmHg 43%
    18:00 +26°C° 0 mm 3 mps 747 mmHg 54%
    19:00 +24°C° 0 mm 2 mps 747 mmHg 66%
    20:00 +21°C° 0 mm 2 mps 746 mmHg 72%
    21:00 +20°C° 0 mm 2 mps 746 mmHg 78%
    22:00 +18°C° 0 mm 2 mps 746 mmHg 84%
    23:00 +18°C° 0 mm 2 mps 746 mmHg 84%

    30 November, Thursday

    Time Temperature Precipitation Wind Pressure Humidity
    00:00 +17°C° 0 mm 2 mps 745 mmHg 84%
    01:00 +17°C° 0 mm 2 mps 744 mmHg 83%
    02:00 +17°C° 0 mm 2 mps 744 mmHg 77%
    03:00 +17°C° 0 mm 2 mps 744 mmHg 71%
    04:00 +17°C° 0 mm 2 mps 744 mmHg 64%
    05:00 +19°C° 0 mm 2 mps 744 mmHg 59%
    06:00 +21°C° 0 mm 2 mps 744 mmHg 54%
    07:00 +24°C° 0 mm 1 mps 744 mmHg 49%
    08:00 +26°C° 0 mm 1 mps 744 mmHg 45%
    09:00 +28°C° 0 mm 1 mps 744 mmHg 41%
    10:00 +29°C° 0 mm 2 mps 743 mmHg 36%
    11:00 +28°C° 0.2 mm 2 mps 743 mmHg 48%
    12:00 +27°C° 0.2 mm 2 mps 743 mmHg 60%
    13:00 +26°C° 0.2 mm 2 mps 743 mmHg 72%
    14:00 +26°C° 0.3 mm 2 mps 742 mmHg 75%
    15:00 +25°C° 0.3 mm 2 mps 742 mmHg 79%
    16:00 +24°C° 0.3 mm 2 mps 742 mmHg 83%
    17:00 +23°C° 0.8 mm 2 mps 742 mmHg 87%
    18:00 +21°C° 0.8 mm 2 mps 742 mmHg 91%
    19:00 +20°C° 0.8 mm 2 mps 743 mmHg 95%
    20:00 +19°C° 0.5 mm 3 mps 743 mmHg 96%
    21:00 +18°C° 0.5 mm 3 mps 743 mmHg 97%
    22:00 +17°C° 0.5 mm 3 mps 744 mmHg 98%
    23:00 +15°C° 0.1 mm 4 mps 744 mmHg 98%
    Show more